Overview Statistics Trail Chart Weather Telemetry Raw packets
 

This is the latest recevied weather packets stored in our database for station/object SR8WXL-13. If no packets are shown the sender has not sent any weather packets the latest 10 day(s).

<< 36 37 38 39 40 41 42 >>
Time Temp. Humidity Pressure Rain* Wind** Luminosity Snow
1787886058 7.22° C 99% 1036.3 hPa 0 mm - - -
1787885321 7.78° C 99% 1036.1 hPa 0 mm - - -
1787884527 7.22° C 99% 1036.2 hPa 0 mm - - -
1787883753 7.78° C 99% 1036.2 hPa 0 mm - - -
1787882974 7.78° C 99% 1036.1 hPa 0 mm - - -
1787882156 7.22° C 98% 1036.3 hPa 0 mm - - -
1787881343 7.22° C 98% 1036.5 hPa 0 mm - - -
1787880589 7.22° C 99% 1036.4 hPa 0 mm - - -
1787879794 7.78° C 98% 1036.3 hPa 0 mm - - -
1787879021 7.78° C 98% 1036.5 hPa 0 mm - - -
1787878297 7.78° C 98% 1036.2 hPa 0 mm - - -
1787877524 7.78° C 98% 1036.5 hPa 0 mm - - -
1787876803 7.78° C 98% 1036.5 hPa 0 mm - - -
1787876082 7.78° C 98% 1036.9 hPa 0 mm - - -
1787875188 7.78° C 98% 1036.7 hPa 0 mm - - -
1787874320 7.78° C 98% 1036.8 hPa 0 mm - - -
1787873465 8.89° C 98% 1037 hPa 0 mm - - -
1787872576 7.78° C 98% 1036.8 hPa 0 mm - - -
1787871728 8.89° C 97% 1036.8 hPa 0 mm - - -
1787871010 8.89° C 97% 1036.5 hPa 0 mm - - -
1787870208 8.89° C 96% 1036.8 hPa 0 mm - - -
1787869344 8.89° C 96% 1036.9 hPa 0 mm - - -
1787868614 10° C 96% 1037.1 hPa 0 mm - - -
1787867742 10° C 96% 1037 hPa 0 mm - - -
1787866936 10° C 96% 1037 hPa 0 mm - - -

* Rain latest hour (hover to see other rain measurements)
** Current wind speed in m/s (hover to see current wind gust speed)